カタログに戻る

STARLINK-37504

運用中通信SSO
NORAD 68913·PAYLOAD·🇺🇸 United States

打ち上げ Apr 30, 2026 から Vandenberg Space Force Base

Loading…

次のパス (今後24時間)

TLE

最新Source: CelesTrak SupGP

元期: Sep 14, 2026, 21:23 UTC

1 68913C 26097U   26257.89145833  .00082978  00000+0  25752-2 0  2577
2 68913  97.2853  92.1108 0001465  97.6582 210.3619 15.33405215    19

AllMySatでSTARLINK-37504をリアルタイム追跡

Download on the App Store